Temp
48 49 49 48 47 48 49 50 50 50 50 50 49 49 49 49 50 50 48 55 53 49 52 51 55 51 54 53 46 53 51 51 48 43 44 45 42 50 50 55 48 47 44 41 46 40 39 61 61 58 67 66 70 68
47 48 48 48 48 49 49 49 49 50 50 49 49 48 48 49 50 50 44 52 56 52 47 51 51 56 61 61 56 55 55 54 54 49 48 50 42 43 51 44 56 47 53 51 51 54 63 64 70 71 68 71 66 68
46 47 47 47 47 49 48 49 49 49 49 48 48 48 49 50 50 49 48 51 50 48 49 49 45 54 57 59 67 54 57 60 56 62 53 51 43 53 42 47 52 54 54 50 52 64 62 63 68 64 66 66 66 67
46 46 46 46 46 47 47 48 47 47 48 48 48 48 49 48 48 51 50 52 52 46 40 45 56 48 58 59 59 61 62 61 60 57 52 44 44 57 51 55 54 61 56 56 58 63 58 60 64 68 63 61 61 64
46 46 46 46 46 46 47 47 47 47 47 48 48 48 49 48 49 48 50 51 54 47 38 45 53 56 54 57 57 59 59 59 56 50 41 43 55 52 51 50 51 59 58 51 53 66 62 69 66 68 63 61 61 60
46 46 46 47 46 46 46 46 47 47 48 47 48 48 48 48 50 48 39 51 54 53 45 36 50 52 55 52 53 57 58 57 57 55 49 56 59 55 45 48 60 65 65 66 64 67 67 56 55 61 61 61 60 58
46 46 46 47 47 46 46 46 46 47 48 47 47 47 48 49 50 46 44 50 52 54 45 39 40 51 54 53 52 52 55 55 55 53 52 54 54 52 46 45 59 64 66 67 63 58 57 55 60 54 55 57 53 57
46 46 46 46 46 46 46 46 46 46 47 48 48 48 48 49 50 48 51 50 53 49 43 35 37 40 52 47 44 54 50 49 49 50 52 51 55 50 43 56 61 64 64 58 58 58 57 56 54 52 53 51 49 49
46 46 46 46 46 46 46 46 47 47 48 48 48 48 49 48 44 47 47 49 54 48 38 34 33 34 45 44 44 43 45 38 45 39 47 49 48 42 53 57 58 59 57 61 57 53 52 51 51 49 48 48 48 44
45 45 45 45 46 46 46 46 47 47 47 48 49 43 36 45 46 48 43 39 40 45 42 35 41 33 42 40 39 40 43 41 36 38 46 37 45 56 60 58 59 58 58 53 48 45 47 47 47 47 47 48 47 45
46 46 45 45 45 46 46 46 46 47 48 44 40 40 46 47 43 41 35 33 37 34 42 41 39 38 46 42 39 43 36 36 35 37 39 38 39 48 47 53 54 53 52 52 52 51 51 50 47 44 43 44 43 42
47 47 47 46 46 46 46 47 47 49 46 44 45 50 45 40 39 33 33 36 37 37 42 39 41 47 43 50 46 40 36 36 35 38 34 35 37 39 42 45 47 48 48 47 48 46 46 45 45 43 40 39 37 34
46 46 47 46 46 46 46 46 46 45 45 46 46 40 39 35 29 30 27 33 34 37 38 37 37 43 44 47 37 37 34 33 36 34 34 32 35 37 39 39 38 40 39 37 36 37 36 35 35 34 31 31 30 30
46 46 46 46 46 46 46 46 46 46 44 37 34 31 32 30 31 31 34 36 34 36 37 38 36 39 37 37 36 34 35 35 32 32 29 33 34 35 35 35 34 32 32 32 31 31 30 30 29 29 29 29 28 28
46 46 46 46 46 46 46 45 45 44 39 32 32 27 30 32 32 31 33 34 34 35 36 35 36 41 34 34 35 34 32 30 30 28 31 32 33 33 32 32 31 30 29 29 29 28 28 29 28 28 28 28 28 27
46 46 47 46 46 46 45 45 42 40 35 32 28 25 28 28 27 28 29 30 33 33 35 35 33 34 32 34 31 28 30 25 28 30 32 33 31 31 30 30 29 29 29 29 30 30 29 27 27 27 27 27 26 26
46 43 46 46 45 44 44 41 38 34 31 30 26 27 26 26 25 27 29 28 32 32 32 33 28 27 33 29 26 29 25 28 30 31 32 32 30 30 30 30 29 30 29 29 28 28 28 29 30 29 26 27 27 26
41 44 45 45 45 43 40 38 36 32 26 27 25 25 26 25 24 25 28 30 33 32 30 26 29 23 21 21 22 23 26 30 29 29 30 31 30 30 30 29 29 30 29 29 28 28 28 27 26 25 26 26 27 27
44 45 45 46 46 40 36 36 39 28 27 28 27 27 28 25 27 28 28 29 31 34 30 26 19 17 18 21 21 24 27 29 26 26 26 27 28 27 27 27 27 27 27 27 26 26 26 27 26 26 26 26 24 25
45 44 43 44 45 40 35 34 41 33 27 29 30 27 26 25 27 27 28 30 30 27 21 19 17 18 19 22 25 25 27 30 28 24 23 25 25 25 25 26 25 25 25 24 24 24 24 23 24 24 25 25 24 22
41 39 42 46 42 41 35 34 32 34 33 31 34 33 29 30 25 23 23 29 23 19 17 19 19 21 22 23 25 25 23 24 23 24 22 20 23 23 22 22 23 23 22 21 21 20 20 20 21 23 22 21 21 21
40 41 42 41 38 36 36 35 34 36 36 34 34 33 27 24 23 22 26 20 17 18 20 20 19 20 20 19 20 22 22 21 21 20 20 20 18 19 19 20 20 19 19 19 19 17 17 18 20 20 19 19 19 18
41 42 36 35 32 32 29 39 31 33 27 29 32 27 25 24 25 29 18 20 19 21 22 23 21 20 19 19 20 20 20 20 19 18 17 17 17 17 17 18 19 18 16 16 18 16 15 15 15 16 16 16 16 15
39 29 26 26 30 24 29 27 32 30 29 28 26 21 21 23 27 21 15 17 18 21 21 20 23 21 20 18 16 16 18 19 18 17 18 17 15 15 17 16 16 16 17 16 16 14 14 13 13 13 12 13 12 12
27 23 27 22 28 24 21 22 21 25 21 23 21 19 19 25 17 15 13 17 18 17 18 20 19 19 17 16 16 15 17 18 15 13 16 19 17 17 15 14 13 14 16 14 13 12 11 12 12 12 12 10 9 9
18 21 23 24 23 22 21 18 18 18 19 18 17 19 21 17 12 11 15 17 16 15 15 17 17 16 14 16 16 15 15 20 19 14 13 15 16 15 13 12 12 10 13 12 12 12 11 10 9 9 9 9 6 7
18 19 24 26 26 23 20 21 22 19 15 14 16 14 15 8 8 13 18 18 17 16 17 18 19 18 16 15 15 16 16 15 14 12 13 13 12 13 12 9 7 8 11 10 10 9 9 8 8 8 8 9 9 7
23 23 16 17 18 20 14 15 14 13 14 17 17 7 6 7 9 15 17 17 17 17 15 15 15 16 15 14 14 15 14 13 12 13 13 12 11 10 9 9 7 5 9 8 10 9 8 8 7 6 5 5 5 7
19 21 21 9 14 14 12 12 12 14 15 16 11 8 8 12 14 16 17 18 18 17 14 12 11 13 13 12 11 11 12 13 10 6 6 7 8 7 9 8 8 7 8 9 7 9 7 7 5 3 3 4 5 6
18 21 16 11 9 10 11 12 11 13 15 15 15 12 12 11 12 16 17 16 15 13 11 11 11 14 10 12 9 8 8 8 7 9 7 5 5 7 7 6 6 5 6 7 6 7 4 5 5 5 4 4 3 3
18 21 17 16 12 14 13 13 13 14 13 12 12 10 9 11 12 13 12 11 10 10 11 10 8 10 10 9 9 9 6 6 3 4 6 7 7 7 6 5 5 5 5 5 4 4 3 4 3 2 1 -0 -1 -1
17 14 15 12 11 13 13 15 15 14 13 13 10 9 8 10 7 10 11 12 11 11 5 9 10 9 7 7 5 6 -4 6 6 5 3 6 7 6 6 5 4 5 4 3 3 2 1 0 1 -0 -0 -1 -2 -3
14 16 16 14 11 10 14 15 14 10 12 11 10 9 10 10 7 10 9 9 12 12 11 10 10 8 6 5 6 6 1 6 -2 -2 0 1 -1 1 4 6 5 3 2 2 3 1 -0 -0 -0 -1 -1 -3 -3 -4
MSLP
986.20 985.15 984.38 983.69 982.56 981.80 981.87 982.93 984.60 986.28 988.00 989.70 991.44 993.20 995.41 997.58 999.32 1000.33 1001.45 1002.15 1002.02 1002.14 1002.50 1003.28 1003.13 1002.87 1002.86 1003.00 1003.35 1003.75 1005.04 1005.44 1006.02 1006.23 1005.85 1005.49 1005.02 1004.10 1003.56 1003.14 1003.54 1003.84 1004.22 1004.38 1004.17 1003.19 1001.96 1001.75 1002.10 1001.05 999.88 1000.51 1000.71 1001.34
986.73 985.83 985.25 984.75 984.48 984.29 984.43 985.04 986.05 987.27 988.57 990.17 991.92 993.99 996.14 998.07 999.56 1000.76 1001.97 1002.45 1002.75 1002.51 1003.60 1004.08 1004.53 1003.99 1003.00 1002.86 1003.10 1003.31 1002.60 1003.56 1004.53 1005.12 1005.48 1005.18 1004.87 1004.56 1003.50 1002.87 1003.20 1003.22 1002.88 1002.87 1002.74 1001.21 1000.86 1000.67 999.87 1000.09 1000.39 1000.38 1001.20 1001.56
987.79 987.17 986.40 986.07 985.25 985.39 985.83 986.38 987.34 988.50 989.68 991.33 993.21 995.24 997.04 998.65 1000.04 1001.32 1002.01 1002.60 1003.01 1003.34 1003.99 1004.16 1004.39 1004.48 1004.36 1003.73 1002.75 1002.84 1002.92 1003.06 1003.62 1003.82 1004.60 1004.67 1004.24 1003.76 1003.32 1002.69 1002.13 1002.29 1002.53 1002.24 1002.24 1000.36 1000.74 1000.70 1000.53 1000.90 1001.01 1001.24 1001.73 1002.12
989.64 988.90 988.32 987.66 986.91 986.87 987.22 987.73 988.92 990.00 991.30 993.05 994.84 996.41 997.91 999.38 1000.64 1000.85 1001.60 1002.74 1002.96 1004.15 1004.28 1003.85 1003.94 1004.82 1004.10 1003.81 1003.53 1003.40 1002.98 1003.41 1003.58 1004.12 1004.20 1004.54 1004.22 1003.39 1002.80 1002.24 1001.47 1000.96 1001.64 1001.22 1000.52 1000.24 1000.89 1000.75 1000.59 1000.50 1001.41 1002.10 1002.42 1002.71
991.47 990.80 990.32 989.96 989.73 989.67 989.98 990.51 991.32 992.39 993.61 994.87 996.12 997.44 998.65 1000.08 1000.95 1001.42 1002.63 1003.24 1003.73 1004.23 1004.65 1003.89 1003.56 1003.77 1004.13 1003.70 1003.40 1003.53 1003.37 1003.11 1003.44 1003.88 1004.28 1004.03 1003.40 1003.51 1003.16 1002.70 1001.02 1000.79 1000.12 1000.22 999.31 999.30 999.64 999.42 999.88 1000.17 1001.08 1001.78 1002.42 1003.07
993.12 992.65 992.25 992.00 991.98 992.16 992.44 992.93 993.46 994.28 995.25 996.38 997.24 998.46 999.77 1000.93 1001.36 1002.01 1003.72 1004.53 1004.62 1004.45 1004.87 1004.50 1003.74 1003.11 1003.50 1003.73 1003.39 1003.12 1003.28 1003.48 1003.49 1003.17 1003.58 1003.21 1003.08 1003.11 1002.22 1001.02 1000.08 999.68 999.76 999.55 999.22 999.85 1000.04 1000.91 1001.12 1001.02 1001.40 1002.09 1002.75 1003.40
994.53 994.26 994.06 994.00 994.07 994.23 994.50 994.92 995.38 996.01 996.82 997.82 998.72 999.51 1000.40 1001.48 1002.19 1002.93 1003.43 1003.52 1004.41 1004.79 1004.86 1005.01 1004.33 1003.03 1003.21 1003.36 1003.18 1003.13 1003.11 1003.27 1003.55 1003.56 1003.20 1003.08 1003.10 1003.28 1002.08 1000.48 999.69 999.35 999.48 999.62 1000.26 1000.91 1001.01 1001.38 1001.11 1002.07 1002.58 1003.15 1003.89 1004.30
995.71 995.61 995.57 995.59 995.69 995.85 996.20 996.67 997.26 997.79 998.36 999.03 999.95 1000.66 1001.51 1002.14 1002.56 1002.93 1003.74 1004.05 1004.04 1004.78 1005.30 1005.40 1004.28 1003.76 1002.94 1002.51 1002.71 1002.73 1003.05 1003.63 1003.74 1003.41 1003.40 1002.90 1002.96 1003.00 1001.00 999.99 999.56 999.56 999.78 1000.29 1000.62 1001.11 1001.59 1002.10 1002.56 1003.08 1003.60 1004.24 1004.99 1005.53
996.60 996.58 996.67 996.77 996.93 997.23 997.61 998.07 998.59 999.07 999.68 1000.42 1001.26 1001.93 1002.57 1003.09 1003.66 1004.00 1004.40 1004.81 1004.92 1005.18 1004.84 1004.84 1004.04 1003.02 1002.65 1002.41 1002.65 1003.44 1003.39 1004.00 1004.09 1003.71 1003.32 1003.05 1002.43 1001.32 1000.12 999.91 999.74 999.80 999.98 999.99 1000.89 1001.82 1002.43 1002.74 1003.19 1003.89 1004.31 1004.95 1005.60 1006.84
997.62 997.63 997.60 997.68 997.97 998.36 998.79 999.14 999.58 1000.15 1000.72 1001.32 1001.77 1002.32 1003.12 1003.64 1004.28 1004.14 1005.14 1005.46 1005.82 1005.00 1004.83 1004.16 1003.46 1002.73 1001.88 1000.98 1002.19 1002.72 1003.29 1003.60 1004.01 1003.61 1003.35 1002.93 1001.26 1000.78 1000.40 1000.51 1000.22 1000.13 1000.30 1001.37 1001.85 1002.35 1002.79 1003.25 1003.98 1004.84 1005.49 1006.14 1007.03 1007.90
998.40 998.31 998.19 998.43 998.84 999.44 999.85 1000.12 1000.44 1000.98 1001.30 1001.76 1002.19 1002.35 1003.26 1003.75 1004.21 1004.06 1004.78 1005.00 1004.46 1004.07 1003.58 1003.28 1003.14 1002.08 1001.12 1000.63 1001.46 1002.52 1003.26 1003.66 1003.64 1003.21 1002.71 1002.47 1002.29 1002.00 1002.65 1001.77 1001.78 1001.81 1002.12 1002.42 1002.63 1003.04 1003.45 1003.79 1004.51 1005.54 1006.75 1007.62 1008.68 1009.31
999.24 999.09 999.08 998.92 999.54 1000.65 1000.95 1001.28 1001.68 1001.69 1002.18 1002.45 1002.12 1002.40 1003.56 1004.21 1004.15 1004.22 1004.26 1004.09 1003.35 1002.15 1002.45 1002.07 1001.55 1001.36 1001.35 1001.30 1001.27 1002.84 1003.04 1003.46 1003.35 1003.36 1003.53 1003.59 1004.16 1004.46 1004.09 1003.70 1003.58 1003.65 1003.86 1004.15 1004.23 1004.53 1004.98 1005.61 1006.40 1007.28 1008.06 1009.07 1010.48 1011.57
1000.08 1000.13 1000.23 1000.69 1001.15 1001.88 1002.21 1002.43 1002.29 1002.18 1002.45 1002.43 1002.40 1002.90 1003.12 1004.13 1004.26 1003.66 1003.31 1002.86 1002.46 1001.89 1002.58 1002.72 1002.86 1002.62 1002.58 1002.27 1002.79 1003.04 1003.38 1003.77 1003.83 1004.03 1004.44 1005.57 1005.86 1005.62 1005.55 1005.47 1005.47 1005.61 1005.78 1006.20 1006.65 1007.04 1007.59 1007.92 1008.96 1009.86 1010.78 1011.53 1012.09 1013.11
1000.85 1001.22 1001.38 1001.56 1002.19 1002.60 1002.71 1002.82 1002.86 1002.51 1002.70 1003.24 1003.44 1003.94 1004.35 1004.32 1004.26 1003.72 1003.25 1002.75 1003.20 1002.84 1002.85 1003.14 1003.51 1003.46 1003.65 1003.48 1003.49 1003.52 1004.08 1004.25 1004.51 1004.95 1006.06 1006.91 1007.15 1007.27 1007.42 1007.48 1007.32 1007.51 1007.60 1008.09 1008.65 1009.26 1009.75 1010.42 1010.89 1011.62 1012.33 1013.10 1013.47 1014.51
1001.51 1001.86 1002.22 1002.59 1002.72 1002.89 1003.11 1003.23 1003.16 1003.60 1004.40 1005.04 1005.20 1005.58 1005.67 1005.89 1005.65 1005.12 1004.37 1004.05 1004.19 1003.76 1003.65 1003.74 1003.77 1003.71 1004.01 1003.99 1004.23 1004.42 1004.75 1005.42 1006.32 1007.30 1008.06 1008.54 1008.69 1008.81 1009.05 1009.19 1009.24 1009.42 1009.76 1010.16 1010.72 1011.19 1011.77 1012.39 1012.66 1013.47 1014.31 1014.85 1015.37 1016.25
1002.00 1002.45 1002.96 1003.18 1003.44 1003.57 1003.84 1004.08 1004.64 1005.39 1006.21 1007.16 1008.23 1008.01 1007.65 1007.04 1006.73 1006.09 1005.77 1005.48 1005.40 1004.98 1004.67 1004.51 1004.60 1004.73 1005.13 1005.22 1005.71 1006.42 1006.69 1008.07 1009.01 1009.45 1009.78 1009.86 1010.07 1010.28 1010.45 1010.58 1010.79 1011.13 1011.66 1011.99 1012.36 1012.98 1013.66 1014.07 1014.59 1015.42 1016.22 1016.84 1017.38 1017.96
1001.98 1002.70 1003.24 1003.61 1004.10 1004.41 1004.65 1005.13 1005.92 1006.90 1008.03 1008.55 1009.41 1009.85 1009.42 1009.08 1008.73 1008.19 1007.55 1006.95 1006.37 1005.73 1005.64 1005.84 1006.29 1007.05 1007.06 1007.61 1008.76 1009.65 1010.39 1010.94 1010.94 1011.13 1011.27 1011.29 1011.36 1011.59 1011.80 1011.94 1012.28 1012.64 1012.96 1013.51 1014.08 1014.78 1015.29 1015.86 1016.22 1016.86 1017.62 1018.65 1019.05 1019.61
1002.28 1002.61 1003.29 1003.95 1004.34 1004.97 1005.70 1006.08 1006.92 1008.27 1009.48 1010.31 1010.28 1010.77 1010.80 1010.67 1010.16 1009.35 1008.63 1007.61 1006.52 1006.52 1007.35 1008.65 1009.39 1010.04 1010.85 1011.37 1012.40 1013.22 1013.06 1012.97 1013.06 1013.08 1012.93 1013.00 1012.99 1013.04 1013.34 1013.54 1013.81 1014.06 1014.51 1015.11 1015.69 1016.26 1016.84 1017.30 1017.90 1018.71 1019.27 1019.91 1020.24 1020.71
1002.08 1002.66 1003.39 1004.00 1004.31 1005.08 1005.95 1006.95 1007.30 1008.90 1010.53 1011.04 1011.55 1011.55 1011.39 1011.74 1011.49 1010.82 1009.89 1009.10 1008.66 1008.37 1009.29 1011.31 1012.97 1014.26 1014.97 1015.41 1015.48 1015.03 1014.51 1014.11 1014.55 1014.97 1015.12 1015.09 1015.01 1015.14 1015.31 1015.46 1015.75 1016.00 1016.47 1017.09 1017.54 1018.15 1018.70 1019.10 1019.62 1020.16 1020.62 1021.03 1021.44 1021.92
1002.85 1003.66 1004.29 1004.69 1004.86 1005.19 1006.38 1007.52 1007.74 1008.91 1010.38 1011.31 1011.64 1011.83 1012.04 1012.32 1012.25 1011.57 1010.81 1010.27 1009.84 1010.55 1013.09 1015.52 1017.36 1018.10 1017.98 1017.76 1017.27 1016.72 1016.07 1015.76 1016.01 1016.31 1016.79 1017.08 1017.22 1017.13 1017.32 1017.47 1017.82 1018.29 1018.62 1019.16 1019.57 1020.04 1020.57 1021.07 1021.60 1021.91 1022.08 1022.37 1022.72 1023.21
1003.87 1004.83 1004.84 1004.76 1005.32 1005.99 1007.52 1008.16 1008.76 1009.64 1010.34 1010.77 1011.26 1011.48 1012.14 1012.51 1012.51 1012.73 1012.58 1012.74 1012.68 1015.75 1017.95 1019.43 1019.67 1019.98 1019.92 1019.49 1018.86 1018.42 1018.11 1017.78 1017.85 1018.12 1018.76 1019.08 1019.49 1019.41 1019.59 1019.86 1020.05 1020.28 1020.56 1021.14 1021.54 1022.19 1022.46 1022.88 1023.31 1023.53 1023.70 1023.99 1024.32 1024.53
1004.81 1005.09 1005.14 1005.44 1006.00 1007.17 1008.38 1009.37 1009.38 1009.94 1010.08 1010.95 1011.28 1011.98 1012.87 1013.66 1014.35 1015.20 1016.16 1016.12 1018.58 1020.47 1020.82 1021.07 1021.27 1021.25 1021.12 1020.85 1020.64 1020.31 1020.32 1020.12 1020.29 1020.51 1020.81 1020.98 1021.14 1021.31 1021.60 1021.94 1021.96 1022.23 1022.64 1023.15 1023.49 1024.00 1024.58 1025.00 1025.00 1025.09 1025.19 1025.41 1025.54 1025.85
1004.93 1005.20 1006.17 1006.70 1007.39 1008.48 1010.47 1010.08 1010.06 1010.70 1011.02 1011.71 1012.35 1013.27 1014.48 1015.48 1016.53 1017.19 1018.81 1020.53 1021.99 1022.74 1022.56 1022.41 1022.60 1022.64 1022.62 1022.69 1022.34 1022.19 1022.19 1022.04 1022.12 1022.53 1022.87 1023.06 1023.35 1023.71 1023.82 1023.98 1024.04 1024.19 1024.66 1025.25 1025.60 1025.93 1026.24 1026.47 1026.55 1026.48 1026.64 1026.72 1026.71 1026.81
1006.01 1007.45 1008.43 1009.06 1009.50 1010.90 1011.36 1011.66 1011.94 1012.18 1012.60 1013.05 1013.82 1015.12 1016.37 1017.11 1018.08 1019.30 1021.26 1022.78 1023.91 1024.01 1023.68 1023.71 1023.42 1023.46 1023.66 1023.69 1023.86 1024.25 1024.31 1024.32 1024.27 1024.45 1024.75 1024.73 1024.94 1025.53 1025.81 1026.02 1026.28 1026.54 1026.73 1027.00 1027.16 1027.33 1027.52 1027.70 1027.76 1027.76 1027.81 1027.71 1027.80 1027.74
1007.62 1010.98 1010.80 1011.60 1011.85 1012.17 1012.98 1013.60 1014.01 1013.85 1014.71 1015.23 1015.94 1017.19 1018.26 1018.53 1019.60 1021.32 1022.78 1024.04 1024.63 1024.99 1025.06 1024.93 1024.98 1024.83 1024.90 1025.37 1025.81 1026.09 1026.17 1025.94 1025.96 1026.13 1026.42 1026.28 1026.43 1026.70 1027.07 1027.58 1028.03 1028.36 1028.32 1028.18 1028.28 1028.38 1028.58 1028.63 1028.66 1028.66 1028.65 1028.73 1028.77 1028.61
1010.84 1013.16 1013.23 1013.52 1014.04 1014.11 1014.91 1015.48 1016.02 1016.45 1016.72 1017.40 1018.39 1019.32 1019.66 1020.20 1021.56 1023.03 1024.24 1025.25 1025.86 1026.30 1026.44 1026.18 1026.11 1026.33 1026.67 1026.91 1027.08 1027.39 1027.62 1027.37 1027.43 1027.65 1028.35 1028.32 1028.14 1028.04 1028.30 1028.57 1028.95 1029.58 1029.90 1029.75 1029.51 1029.35 1029.40 1029.48 1029.51 1029.47 1029.36 1029.43 1029.56 1029.41
1013.19 1014.43 1015.22 1015.96 1015.86 1016.17 1016.94 1017.71 1018.03 1018.34 1018.96 1019.62 1020.24 1020.70 1021.22 1022.31 1023.61 1024.90 1025.86 1026.65 1026.92 1027.55 1027.79 1027.68 1027.41 1027.54 1027.87 1028.39 1028.81 1029.00 1029.15 1029.19 1029.23 1029.61 1029.94 1030.06 1030.16 1030.21 1030.14 1030.24 1030.71 1031.28 1030.97 1030.88 1030.69 1030.52 1030.33 1030.25 1030.16 1030.06 1029.97 1029.85 1029.79 1029.88
1015.08 1015.93 1016.68 1017.70 1017.83 1018.32 1018.94 1019.67 1020.29 1020.97 1021.42 1021.86 1022.11 1022.98 1023.73 1024.53 1025.48 1026.37 1026.82 1027.77 1028.12 1028.37 1028.73 1029.03 1029.18 1029.07 1029.35 1029.72 1029.90 1029.87 1030.16 1030.52 1030.66 1030.60 1030.74 1030.99 1031.30 1031.57 1031.74 1031.93 1032.45 1032.44 1031.91 1031.86 1031.32 1031.08 1031.07 1030.96 1030.85 1030.73 1030.67 1030.49 1030.44 1030.36
1016.82 1017.71 1018.06 1019.21 1019.58 1020.57 1021.75 1022.28 1022.74 1023.37 1023.81 1023.45 1023.85 1024.93 1025.97 1027.01 1027.80 1027.63 1027.95 1028.29 1028.65 1028.89 1029.19 1029.67 1030.15 1030.30 1030.50 1030.79 1031.00 1031.10 1030.98 1030.71 1030.58 1030.78 1030.89 1031.21 1031.48 1032.09 1032.41 1032.41 1032.34 1032.50 1032.30 1031.90 1031.99 1031.65 1031.66 1031.60 1031.64 1031.73 1031.41 1031.15 1030.96 1030.74
1018.32 1018.71 1019.24 1020.71 1021.71 1022.84 1023.90 1024.35 1024.59 1025.10 1025.10 1025.19 1025.49 1026.53 1027.33 1028.26 1028.95 1029.08 1028.88 1029.02 1029.19 1029.61 1030.12 1030.42 1030.73 1030.68 1030.98 1030.98 1031.40 1031.79 1032.12 1032.08 1031.91 1031.60 1031.48 1031.81 1032.24 1032.70 1032.80 1032.80 1032.79 1032.85 1032.78 1032.39 1032.23 1032.07 1032.22 1032.04 1031.86 1031.78 1031.61 1031.39 1031.27 1031.05
1019.34 1019.32 1020.35 1021.74 1023.15 1024.42 1025.00 1025.44 1025.58 1025.74 1025.94 1026.32 1026.74 1027.14 1027.95 1028.76 1029.51 1030.06 1030.17 1030.43 1030.54 1030.72 1030.69 1030.96 1031.29 1031.50 1031.54 1031.73 1031.80 1032.05 1032.32 1032.84 1033.01 1032.97 1032.89 1032.95 1033.01 1032.98 1033.12 1033.24 1033.23 1033.13 1032.91 1032.67 1032.57 1032.48 1032.40 1032.06 1031.96 1031.91 1031.88 1031.82 1031.77 1031.60
1020.12 1020.53 1021.11 1022.52 1024.17 1025.18 1025.58 1025.26 1025.32 1025.70 1026.45 1026.69 1027.50 1028.22 1028.92 1029.02 1029.33 1030.22 1031.04 1031.16 1031.05 1030.93 1031.39 1031.40 1031.37 1031.75 1032.38 1032.63 1032.88 1033.00 1033.17 1033.20 1033.26 1033.45 1033.43 1033.29 1033.12 1033.30 1033.30 1033.32 1033.38 1033.20 1032.99 1032.90 1032.82 1032.72 1032.65 1032.48 1032.31 1032.28 1032.13 1032.03 1032.00 1031.90
1021.35 1021.59 1022.10 1023.04 1024.21 1024.79 1025.06 1025.16 1025.41 1026.08 1026.51 1026.95 1027.75 1028.40 1028.73 1029.00 1029.51 1030.43 1031.69 1031.83 1031.45 1031.31 1031.44 1031.72 1032.04 1032.38 1032.83 1033.06 1033.23 1033.32 1033.85 1033.51 1034.01 1034.11 1033.98 1033.95 1034.07 1033.86 1033.50 1033.24 1033.26 1033.26 1033.19 1033.12 1033.01 1032.97 1032.83 1032.68 1032.53 1032.49 1032.37 1032.36 1032.24 1032.08
Wind_Speed
19 12 10 11 18 21 23 28 31 32 33 32 37 41 42 40 35 10 7 6 6 7 9 2 16 16 22 15 14 16 10 6 6 9 7 5 4 5 5 6 7 9 9 5 6 6 11 10 11 11 12 2 7 10
21 16 14 11 10 14 18 22 26 27 33 38 40 38 37 34 31 10 6 4 2 1 6 5 4 8 12 25 12 15 8 16 8 7 6 5 3 1 7 9 5 6 5 2 8 5 3 19 12 15 4 6 6 10
24 24 20 19 11 12 17 20 25 31 35 37 36 35 32 32 26 13 9 7 5 2 2 2 4 4 5 8 11 8 8 7 8 4 5 4 4 6 5 7 8 6 3 5 5 9 10 8 13 5 7 6 3 6
25 24 24 26 28 30 29 32 32 33 34 33 31 32 33 26 17 14 8 6 7 4 3 3 7 4 7 7 10 8 7 6 5 5 4 3 4 5 7 11 10 9 10 12 16 14 5 11 13 15 11 7 7 9
23 24 21 23 24 26 28 27 27 27 27 27 26 28 33 24 18 14 9 6 6 2 2 3 4 4 6 8 12 12 7 9 5 5 3 5 3 3 2 2 7 8 11 7 8 9 9 12 4 14 15 14 11 14
20 23 24 25 25 26 25 26 25 24 27 26 23 25 29 25 18 8 4 3 4 4 3 3 7 9 9 6 11 15 13 8 4 3 3 4 3 5 5 10 15 16 13 14 15 6 8 1 3 4 11 11 13 15
16 19 21 23 26 26 26 29 27 27 29 30 28 28 27 21 8 3 3 7 10 5 3 2 4 5 9 13 7 5 10 8 7 7 6 6 4 5 5 12 12 8 12 14 6 4 5 7 3 6 6 9 10 12
16 17 18 19 21 24 24 24 25 25 26 27 27 25 19 12 7 5 5 15 9 4 1 3 4 4 11 7 6 7 6 4 4 4 1 8 6 3 7 13 18 19 12 8 11 8 6 1 5 7 10 12 14 15
16 16 17 16 16 18 20 21 23 23 25 25 26 21 8 4 2 4 9 14 3 1 4 3 3 3 5 3 4 2 2 4 2 4 5 4 7 10 8 14 11 12 12 11 7 6 6 7 8 10 13 15 16 15
17 17 15 15 16 17 20 21 22 25 27 25 8 3 4 4 8 14 3 4 4 3 3 3 2 5 5 6 5 4 0 3 3 5 5 4 10 13 11 7 7 8 9 6 6 5 7 7 9 10 11 10 12 15
16 14 11 14 14 18 19 22 25 25 12 3 3 3 4 9 2 4 4 3 4 5 7 5 6 6 1 2 4 2 3 4 4 3 4 3 1 5 15 10 7 5 3 5 3 4 5 6 12 13 12 12 13 15
16 15 20 21 23 20 21 19 11 2 2 3 1 5 4 4 2 2 4 4 7 5 6 3 2 3 4 3 2 2 2 1 2 2 2 1 4 9 8 4 5 5 4 4 5 7 8 10 10 12 14 16 16 17
14 15 17 25 28 23 18 14 12 7 3 1 3 3 1 2 4 5 8 4 4 2 4 3 3 1 1 3 3 2 3 2 1 1 1 3 5 8 7 5 9 10 12 13 13 13 13 15 15 14 14 13 16 15
13 15 15 15 18 18 18 17 13 6 6 4 2 4 2 2 3 3 3 3 2 1 4 3 3 2 1 2 0 2 3 1 3 2 4 4 6 7 8 7 9 11 13 13 14 14 16 15 16 15 13 13 15 16
15 15 15 13 14 17 17 16 14 6 3 6 5 5 5 4 4 5 2 2 3 2 2 3 2 1 2 2 2 2 3 4 5 4 4 5 6 5 6 8 10 10 11 12 12 14 15 15 17 17 15 15 16 15
18 11 6 14 17 15 12 9 7 4 4 4 7 6 8 5 9 7 7 5 4 3 0 2 2 2 3 3 4 6 3 6 5 5 6 4 7 8 9 11 12 12 12 13 14 16 16 16 17 18 17 15 13 13
8 3 14 16 16 16 15 4 2 6 6 4 4 8 7 3 5 7 7 7 4 2 3 3 5 6 3 4 5 6 5 7 6 5 5 8 9 10 11 13 13 13 15 16 17 17 17 17 16 17 17 14 14 14
2 9 20 20 10 5 2 3 4 5 7 5 3 6 6 6 8 6 7 8 4 3 3 6 5 8 6 5 4 5 4 4 8 9 9 10 13 14 12 15 14 15 18 17 16 16 15 15 14 11 14 13 13 12
7 12 22 13 5 4 3 4 3 6 6 3 4 6 2 6 9 8 8 7 8 8 6 5 8 6 5 5 7 7 7 6 7 8 10 14 14 15 15 15 16 17 18 16 16 12 12 15 11 9 8 8 8 7
23 19 15 7 2 2 5 4 2 6 5 3 2 10 9 8 9 10 11 10 10 7 9 8 6 6 6 6 7 6 6 6 7 9 11 10 11 14 15 13 12 14 13 14 14 14 11 11 10 10 9 9 7 7
10 4 6 3 3 6 5 3 5 4 4 3 2 5 6 8 14 13 13 11 11 8 7 6 7 7 9 9 8 7 10 10 10 9 9 10 10 11 11 11 12 11 11 10 11 12 13 10 9 8 8 8 7 7
2 1 2 4 4 4 5 6 3 2 3 3 3 4 5 6 7 10 8 11 8 8 6 7 8 7 10 14 12 13 12 14 14 12 13 12 11 11 11 10 10 11 11 11 10 10 10 9 8 8 8 7 7 7
3 4 4 5 6 6 4 3 4 5 4 3 2 5 5 5 5 5 7 6 5 7 8 7 10 11 11 12 15 17 15 14 11 11 11 11 11 11 11 12 11 11 10 10 9 8 8 9 9 8 7 7 7 7
6 7 7 6 7 5 2 5 4 3 4 4 4 5 5 4 3 5 6 4 6 6 8 10 7 7 9 14 12 11 11 9 11 11 10 10 10 11 10 10 10 10 9 8 7 8 7 7 8 7 7 7 8 7
9 9 6 7 5 6 6 5 6 4 5 5 4 4 4 3 4 5 4 3 5 7 7 7 8 8 8 8 8 10 12 9 9 10 9 8 7 7 9 9 10 10 8 7 8 7 7 6 7 7 7 8 9 8
10 9 7 6 4 5 4 4 5 6 4 4 5 3 2 4 5 5 3 3 4 5 5 6 6 7 9 8 7 7 7 6 7 9 9 8 8 7 6 6 6 7 8 7 6 7 7 7 7 7 6 7 7 7
7 7 5 5 3 4 5 4 4 5 5 5 3 3 3 5 5 4 4 4 3 4 4 5 5 7 7 7 6 7 7 8 9 8 6 7 8 8 8 7 7 5 5 6 6 6 6 6 6 6 6 6 6 6
6 6 6 6 6 5 5 4 5 5 3 3 1 5 4 3 4 3 3 4 5 5 6 6 6 5 5 5 4 3 4 5 5 6 7 7 7 7 7 5 5 6 4 5 5 5 6 5 6 6 6 6 6 6
6 3 3 6 5 7 7 5 3 3 4 2 3 3 3 3 2 2 4 4 4 4 5 6 5 4 5 5 6 6 5 3 1 5 6 4 3 5 4 4 4 4 4 4 5 6 6 5 5 5 5 5 4 4
4 3 5 5 6 6 4 4 3 3 4 4 4 4 4 3 4 3 3 3 3 4 4 4 3 1 3 3 4 5 5 5 5 4 4 4 4 3 3 4 4 4 4 4 4 4 5 4 4 3 5 4 5 5
2 2 6 5 5 3 5 4 3 4 3 5 6 5 5 4 3 4 4 4 4 4 4 4 4 3 3 3 2 2 4 4 4 5 4 3 3 3 4 3 3 3 3 3 3 3 4 4 4 5 6 6 6 6
3 5 5 5 4 5 3 0 2 3 2 2 3 2 3 3 4 3 2 2 3 3 2 2 3 3 3 3 2 3 2 2 2 2 3 3 4 4 3 3 3 3 3 3 3 3 4 5 4 5 5 7 7 7
3 3 4 5 4 5 4 2 2 3 2 2 2 2 2 1 3 3 3 1 2 1 2 3 3 4 4 3 3 3 1 2 2 2 2 3 4 4 3 3 3 3 4 3 3 3 4 5 5 6 6 6 7 7
Wind_Direction
355 353 15 36 49 79 115 138 152 155 161 161 158 158 160 166 174 142 143 200 177 185 174 133 210 197 198 181 184 171 157 182 175 195 205 184 219 213 231 205 176 180 175 181 204 217 238 147 141 203 226 195 212 200
14 39 29 67 81 98 111 130 142 149 158 152 150 152 158 168 166 117 133 114 154 132 79 68 331 305 227 193 177 180 182 162 167 178 198 213 197 203 210 220 193 219 211 220 217 221 107 186 216 218 237 247 203 202
27 52 53 57 75 141 116 146 139 148 142 141 145 148 153 149 154 162 131 124 77 101 89 222 154 250 304 251 236 189 205 184 185 191 159 215 215 176 199 226 233 231 156 189 274 236 231 219 229 244 226 219 198 200
40 51 53 60 60 89 93 108 117 121 124 132 145 148 156 128 123 144 113 121 92 90 201 228 135 206 276 246 243 236 223 152 128 178 194 161 202 219 227 241 232 237 165 225 247 258 269 246 236 231 209 202 192 184
50 50 62 67 75 77 85 93 103 114 122 128 139 152 154 120 107 85 87 75 69 107 145 269 267 198 247 236 205 204 218 178 177 153 143 209 212 197 193 260 242 198 216 209 238 251 219 261 279 209 203 205 186 167
60 65 66 73 78 82 86 93 107 119 125 121 132 135 128 129 122 93 92 79 124 88 45 350 341 257 258 283 234 199 210 224 227 204 199 227 204 222 242 249 243 237 240 241 257 304 249 5 4 190 206 197 182 176
63 72 76 83 85 88 86 94 97 99 109 115 112 110 109 115 112 95 111 130 145 152 134 273 250 229 227 244 207 198 197 205 220 225 227 242 209 214 239 248 249 246 255 251 255 220 246 221 268 178 187 168 156 155
79 77 78 81 85 91 97 99 102 105 107 116 120 120 103 77 113 92 62 133 123 101 109 210 241 258 191 190 195 185 174 173 196 228 268 222 204 234 246 242 245 247 254 234 228 217 285 353 152 159 151 148 152 153
86 89 92 94 99 101 102 107 110 112 115 112 110 103 84 64 92 64 125 145 143 267 197 207 241 200 148 204 136 90 110 163 105 193 220 205 205 220 234 232 231 222 217 244 196 222 207 210 179 166 162 163 158 153
77 85 95 103 106 104 110 114 116 115 117 119 121 98 123 146 123 119 65 120 204 214 215 245 102 263 208 188 157 111 131 150 180 207 165 203 236 242 243 257 267 241 211 175 175 220 206 192 178 170 172 159 150 149
76 86 111 138 134 108 118 114 121 121 107 40 71 74 80 96 79 194 135 178 192 191 192 216 184 267 28 96 107 57 154 158 206 170 237 181 240 355 340 295 320 314 225 208 297 311 213 195 163 152 144 139 138 136
90 75 78 83 133 121 109 115 115 119 91 15 50 111 97 201 140 145 176 179 218 201 145 208 265 281 10 325 94 97 110 192 162 108 118 232 37 350 341 353 41 52 54 47 61 94 109 118 137 134 129 128 119 108
100 93 90 89 96 96 90 86 58 18 10 245 162 104 232 82 215 225 178 187 176 160 133 155 131 158 212 14 54 110 157 165 34 157 121 44 329 5 3 42 62 69 79 81 77 76 83 90 90 102 104 106 109 105
103 94 90 85 88 87 79 70 56 54 50 53 36 116 316 175 288 315 339 88 73 94 122 122 114 173 159 148 132 144 78 143 194 168 52 17 1 10 24 40 78 76 79 81 80 86 87 87 90 90 93 98 98 94
109 99 96 92 88 85 77 68 52 55 36 41 3 25 36 8 350 326 313 97 23 18 42 78 63 50 45 102 37 119 136 83 31 38 13 355 7 42 68 70 71 72 73 76 83 84 86 89 88 86 84 88 88 89
122 99 104 108 100 80 63 60 37 33 44 57 35 339 342 1 356 0 2 22 9 344 284 47 121 107 65 38 52 22 38 45 11 343 345 14 50 59 72 71 73 78 82 85 82 85 85 81 86 89 83 78 81 88
126 109 145 119 99 75 50 64 69 49 28 39 50 18 356 357 336 346 338 335 306 286 64 53 52 38 33 60 59 15 36 10 360 29 31 47 63 73 80 81 82 86 86 85 85 84 88 94 92 87 86 83 85 83
105 146 138 121 115 78 65 44 77 61 63 23 26 12 33 7 356 357 347 348 360 63 46 52 28 36 32 38 52 10 327 319 40 34 43 58 66 69 73 80 80 84 86 84 84 83 81 81 82 82 86 86 84 78
145 144 148 130 106 94 81 57 31 95 51 68 34 7 31 32 18 13 17 18 41 51 84 60 50 38 25 20 343 332 341 55 71 60 51 50 61 69 70 70 73 75 75 74 74 72 71 71 75 78 78 80 79 74
105 101 100 105 153 96 83 64 65 77 53 56 92 55 57 37 18 23 29 29 48 61 48 50 35 20 355 348 342 347 351 73 88 80 63 53 50 59 59 67 69 75 74 70 66 68 72 68 60 60 61 64 73 67
63 11 34 33 63 62 68 46 64 83 129 77 38 51 62 45 36 29 31 19 45 40 63 36 37 34 26 25 26 40 49 54 58 68 76 72 56 63 64 62 64 67 69 68 71 67 61 60 57 56 59 58 55 51
88 67 95 17 85 75 76 25 70 91 75 86 56 43 37 26 23 26 25 38 56 34 24 35 30 35 40 39 39 46 57 66 67 66 62 63 61 56 56 58 61 64 61 60 61 63 59 46 44 49 47 46 43 49
96 45 50 25 75 55 45 346 59 26 58 57 55 47 45 43 39 33 62 41 51 13 26 34 53 48 53 44 50 49 47 58 63 62 61 62 64 61 60 54 51 62 65 56 54 59 57 46 47 46 47 43 40 39
43 49 38 41 37 76 51 40 28 45 51 32 56 59 44 40 45 66 66 53 26 19 32 34 40 64 60 50 47 38 40 51 64 61 55 64 66 60 60 63 60 57 55 60 57 55 50 51 41 46 40 43 38 28
67 17 23 36 29 61 50 41 19 44 57 39 71 65 51 22 66 67 66 61 32 29 22 42 47 47 64 65 58 51 42 47 60 65 43 55 77 83 74 68 59 45 31 46 46 47 47 39 40 38 42 37 22 19
72 18 32 32 33 50 41 61 42 39 39 60 57 59 38 71 75 77 71 56 41 28 26 29 56 73 62 49 58 45 33 40 68 70 51 37 38 52 60 60 64 58 28 22 22 26 35 27 28 23 25 29 24 1
64 53 54 32 46 83 86 70 57 53 55 38 31 38 54 73 90 91 105 36 67 51 52 36 60 77 83 78 65 54 53 51 60 72 71 60 53 44 42 49 48 30 13 17 27 25 25 21 22 14 8 6 8 3
61 42 60 11 60 33 79 57 44 47 47 23 56 42 64 56 92 67 79 102 89 90 84 71 59 62 72 70 58 69 89 96 103 98 95 82 67 58 52 59 50 40 37 29 29 30 27 23 19 17 14 8 6 4
56 45 79 47 54 52 40 33 56 46 354 359 83 89 92 65 39 97 108 108 114 118 110 105 89 94 93 85 63 44 30 24 152 101 94 87 90 64 34 34 32 27 18 19 37 22 47 24 26 11 9 6 4 13
62 11 88 60 50 49 38 14 57 45 38 45 96 111 92 81 47 21 102 117 112 95 80 77 85 80 82 82 85 71 49 34 28 37 70 70 56 29 12 12 11 21 360 7 12 24 26 24 26 32 26 26 18 7
13 89 81 62 80 68 102 108 130 106 62 61 59 82 95 110 107 48 60 72 98 123 134 120 105 76 88 74 66 83 91 69 60 57 55 77 51 20 17 12 11 357 2 6 11 17 6 8 20 11 16 12 7 357
38 49 111 106 122 155 194 359 67 74 83 82 92 108 145 164 149 145 97 184 170 170 112 144 149 128 105 91 79 68 43 71 116 76 44 24 20 20 12 6 2 352 0 1 5 5 5 3 359 359 349 351 350 345
98 83 91 111 124 175 194 166 103 119 97 93 91 50 45 3 123 119 123 340 353 89 134 146 119 113 111 93 68 74 69 53 31 349 27 14 350 345 325 352 349 347 334 334 349 347 348 347 342 342 336 333 331 330